• In Latvia
  • List of Countries
  • For 7 days
  • Water Temperature
  • Satellite Maps
  • Weather Map
  • Weather Widgets
  • user-avatar
    Login

    Hourly Weather Hobart

    Today, 18 August, Friday

    Time Temperature Precipitation Wind Pressure Humidity
    00:00 +3°C° 0 mm 4 mps 732 mmHg 89%
    01:00 +3°C° 0 mm 4 mps 732 mmHg 90%
    02:00 +1°C° 0.1 mm 4 mps 732 mmHg 91%
    03:00 +1°C° 0.1 mm 4 mps 733 mmHg 92%
    04:00 +1°C° 0.1 mm 4 mps 733 mmHg 93%
    05:00 +1°C° 0.2 mm 4 mps 734 mmHg 94%
    06:00 +1°C° 0.2 mm 4 mps 734 mmHg 95%
    07:00 +1°C° 0.2 mm 4 mps 735 mmHg 96%
    08:00 +3°C° 0.2 mm 4 mps 736 mmHg 90%
    09:00 +5°C° 0.2 mm 5 mps 736 mmHg 84%
    10:00 +6°C° 0.2 mm 5 mps 737 mmHg 79%
    11:00 +5°C° 0.3 mm 6 mps 738 mmHg 77%
    12:00 +5°C° 0.3 mm 6 mps 739 mmHg 76%
    13:00 +5°C° 0.3 mm 7 mps 740 mmHg 75%
    14:00 +5°C° 0.2 mm 7 mps 741 mmHg 73%
    15:00 +5°C° 0.2 mm 7 mps 741 mmHg 70%
    16:00 +4°C° 0.2 mm 7 mps 742 mmHg 68%
    17:00 +3°C° 0.1 mm 6 mps 743 mmHg 75%
    18:00 +2°C° 0.1 mm 6 mps 744 mmHg 81%
    19:00 0°C° 0.1 mm 5 mps 745 mmHg 88%
    20:00 0°C° 0.1 mm 5 mps 746 mmHg 89%
    21:00 -1°C° 0.1 mm 5 mps 747 mmHg 91%
    22:00 -1°C° 0.1 mm 5 mps 748 mmHg 92%
    23:00 -1°C° 0.1 mm 5 mps 749 mmHg 93%

    Tomorrow, 19 August, Saturday

    Time Temperature Precipitation Wind Pressure Humidity
    00:00 -2°C° 0.1 mm 4 mps 749 mmHg 93%
    01:00 -2°C° 0.1 mm 4 mps 750 mmHg 94%
    02:00 -2°C° 0.1 mm 4 mps 750 mmHg 94%
    03:00 -2°C° 0.1 mm 4 mps 750 mmHg 94%
    04:00 -2°C° 0.1 mm 4 mps 751 mmHg 94%
    05:00 -2°C° 0 mm 4 mps 751 mmHg 94%
    06:00 -2°C° 0 mm 4 mps 752 mmHg 94%
    07:00 -2°C° 0 mm 4 mps 752 mmHg 94%
    08:00 0°C° 0.1 mm 4 mps 752 mmHg 82%
    09:00 +3°C° 0.1 mm 5 mps 753 mmHg 70%
    10:00 +6°C° 0.1 mm 5 mps 753 mmHg 58%
    11:00 +7°C° 0 mm 5 mps 753 mmHg 56%
    12:00 +7°C° 0 mm 5 mps 753 mmHg 55%
    13:00 +8°C° 0 mm 5 mps 753 mmHg 53%
    14:00 +8°C° 0 mm 5 mps 753 mmHg 57%
    15:00 +7°C° 0 mm 5 mps 753 mmHg 60%
    16:00 +7°C° 0 mm 5 mps 753 mmHg 64%
    17:00 +5°C° 0 mm 5 mps 753 mmHg 73%
    18:00 +3°C° 0 mm 4 mps 753 mmHg 82%
    19:00 +1°C° 0 mm 4 mps 753 mmHg 91%
    20:00 +1°C° 0 mm 4 mps 753 mmHg 92%
    21:00 +1°C° 0 mm 4 mps 753 mmHg 93%
    22:00 0°C° 0 mm 4 mps 753 mmHg 94%
    23:00 +1°C° 0 mm 4 mps 753 mmHg 94%

    Day after tomorrow, 20 August, Sunday

    Time Temperature Precipitation Wind Pressure Humidity
    00:00 +1°C° 0 mm 4 mps 753 mmHg 93%
    01:00 +3°C° 0 mm 4 mps 753 mmHg 93%
    02:00 +3°C° 0 mm 4 mps 752 mmHg 93%
    03:00 +3°C° 0 mm 4 mps 752 mmHg 94%
    04:00 +3°C° 0 mm 4 mps 752 mmHg 95%
    05:00 +3°C° 0 mm 4 mps 752 mmHg 94%
    06:00 +3°C° 0 mm 4 mps 752 mmHg 94%
    07:00 +3°C° 0 mm 3 mps 752 mmHg 94%
    08:00 +5°C° 0 mm 4 mps 752 mmHg 86%
    09:00 +7°C° 0 mm 4 mps 752 mmHg 79%
    10:00 +11°C° 0 mm 4 mps 751 mmHg 71%
    11:00 +11°C° 0 mm 4 mps 751 mmHg 68%
    12:00 +12°C° 0 mm 4 mps 751 mmHg 65%
    13:00 +13°C° 0 mm 4 mps 750 mmHg 62%
    14:00 +12°C° 0 mm 4 mps 750 mmHg 63%
    15:00 +12°C° 0 mm 4 mps 749 mmHg 64%
    16:00 +11°C° 0 mm 3 mps 749 mmHg 66%
    17:00 +9°C° 0 mm 3 mps 749 mmHg 75%
    18:00 +7°C° 0 mm 3 mps 749 mmHg 85%
    19:00 +5°C° 0 mm 2 mps 749 mmHg 95%
    20:00 +4°C° 0 mm 2 mps 749 mmHg 95%
    21:00 +4°C° 0 mm 2 mps 749 mmHg 96%
    22:00 +4°C° 0 mm 2 mps 749 mmHg 96%
    23:00 +3°C° 0 mm 2 mps 748 mmHg 97%

    21 August, Monday

    Time Temperature Precipitation Wind Pressure Humidity
    00:00 +3°C° 0 mm 2 mps 747 mmHg 97%
    01:00 +3°C° 0 mm 2 mps 747 mmHg 97%
    02:00 +3°C° 0 mm 2 mps 746 mmHg 96%
    03:00 +3°C° 0 mm 2 mps 746 mmHg 96%
    04:00 +3°C° 0 mm 2 mps 745 mmHg 96%
    05:00 +3°C° 0 mm 2 mps 745 mmHg 94%
    06:00 +3°C° 0 mm 2 mps 745 mmHg 93%
    07:00 +3°C° 0 mm 2 mps 744 mmHg 92%
    08:00 +4°C° 0 mm 3 mps 744 mmHg 83%
    09:00 +8°C° 0 mm 3 mps 743 mmHg 75%
    10:00 +10°C° 0 mm 4 mps 742 mmHg 67%
    11:00 +11°C° 0 mm 4 mps 742 mmHg 62%
    12:00 +11°C° 0 mm 4 mps 741 mmHg 58%
    13:00 +12°C° 0 mm 4 mps 740 mmHg 54%
    14:00 +11°C° 0.1 mm 4 mps 740 mmHg 61%
    15:00 +10°C° 0.1 mm 4 mps 740 mmHg 69%
    16:00 +9°C° 0.1 mm 3 mps 739 mmHg 76%
    17:00 +7°C° 0.2 mm 4 mps 739 mmHg 82%
    18:00 +6°C° 0.2 mm 4 mps 739 mmHg 87%
    19:00 +5°C° 0.2 mm 4 mps 739 mmHg 93%
    20:00 +5°C° 0.2 mm 4 mps 739 mmHg 93%
    21:00 +5°C° 0.2 mm 4 mps 739 mmHg 93%
    22:00 +5°C° 0.2 mm 4 mps 739 mmHg 93%
    23:00 +6°C° 0.4 mm 4 mps 739 mmHg 93%

    22 August, Tuesday

    Time Temperature Precipitation Wind Pressure Humidity
    00:00 +6°C° 0.4 mm 5 mps 739 mmHg 93%
    01:00 +6°C° 0.4 mm 5 mps 739 mmHg 94%
    02:00 +5°C° 0.1 mm 5 mps 740 mmHg 94%
    03:00 +3°C° 0.1 mm 5 mps 740 mmHg 94%
    04:00 +2°C° 0.1 mm 5 mps 741 mmHg 94%
    05:00 +2°C° 0 mm 5 mps 742 mmHg 95%
    06:00 +1°C° 0 mm 4 mps 742 mmHg 96%
    07:00 0°C° 0 mm 4 mps 743 mmHg 96%
    08:00 +3°C° 0 mm 3 mps 743 mmHg 89%
    09:00 +5°C° 0 mm 3 mps 743 mmHg 82%
    10:00 +8°C° 0 mm 3 mps 744 mmHg 76%
    11:00 +8°C° 0 mm 3 mps 743 mmHg 71%
    12:00 +9°C° 0 mm 3 mps 743 mmHg 67%
    13:00 +10°C° 0 mm 3 mps 742 mmHg 62%
    14:00 +10°C° 0.1 mm 4 mps 742 mmHg 66%
    15:00 +10°C° 0.1 mm 4 mps 741 mmHg 70%
    16:00 +8°C° 0.1 mm 5 mps 740 mmHg 74%
    17:00 +8°C° 0.1 mm 6 mps 739 mmHg 76%
    18:00 +8°C° 0.1 mm 6 mps 738 mmHg 79%
    19:00 +7°C° 0.1 mm 6 mps 738 mmHg 81%
    20:00 +8°C° 0.1 mm 6 mps 737 mmHg 81%
    21:00 +8°C° 0.1 mm 6 mps 736 mmHg 82%
    22:00 +8°C° 0.1 mm 7 mps 735 mmHg 82%
    23:00 +8°C° 0.7 mm 7 mps 736 mmHg 85%

    23 August, Wednesday

    Time Temperature Precipitation Wind Pressure Humidity
    00:00 +6°C° 0.7 mm 7 mps 736 mmHg 88%
    01:00 +5°C° 0.7 mm 8 mps 736 mmHg 92%
    02:00 +4°C° 0.5 mm 8 mps 738 mmHg 91%
    03:00 +2°C° 0.5 mm 8 mps 739 mmHg 91%
    04:00 +1°C° 0.5 mm 9 mps 741 mmHg 91%
    05:00 +1°C° 0.2 mm 8 mps 742 mmHg 90%
    06:00 0°C° 0.2 mm 8 mps 744 mmHg 89%
    07:00 -1°C° 0.2 mm 8 mps 745 mmHg 88%
    08:00 0°C° 0 mm 8 mps 746 mmHg 78%
    09:00 +2°C° 0 mm 8 mps 747 mmHg 68%
    10:00 +4°C° 0 mm 8 mps 748 mmHg 58%
    11:00 +5°C° 0 mm 8 mps 748 mmHg 57%
    12:00 +6°C° 0 mm 7 mps 748 mmHg 56%
    13:00 +6°C° 0 mm 7 mps 749 mmHg 55%
    14:00 +6°C° 0.3 mm 8 mps 749 mmHg 61%
    15:00 +6°C° 0.3 mm 8 mps 749 mmHg 67%
    16:00 +6°C° 0.3 mm 8 mps 749 mmHg 73%
    17:00 +5°C° 0.2 mm 8 mps 749 mmHg 76%
    18:00 +5°C° 0.2 mm 7 mps 750 mmHg 80%
    19:00 +5°C° 0.2 mm 7 mps 750 mmHg 84%
    20:00 +5°C° 0.1 mm 6 mps 751 mmHg 86%
    21:00 +4°C° 0.1 mm 6 mps 751 mmHg 88%
    22:00 +4°C° 0.1 mm 6 mps 751 mmHg 90%
    23:00 +5°C° 0 mm 5 mps 751 mmHg 89%
    Show more